ONEWEB-0034, 45454

Orbit data source: Space-Track

ONEWEB-0034, 45454 is a payload satellite owned by One Web (UK) in LEO that was launched on Sat, 21 Mar 2020 UTC via a SOYUZ-2-1B launch vehicle from the Tyuratam Missile And Space Complex (TTMTR). Payload-class satellites include a variety of spacecraft equipped with specific instruments for various scientific and technological missions. These include communications satellites like Starlink; space stations such as the ISS; scientific satellites like the Hubble; Earth observation satellites from companies like Planet Labs, Umbra, and HawkEye 360; GPS; miniature CubeSats for education and research; and military/defense satellites.

Loading next visibility...
Identifier
45454, 2020-020AG
Orbit
LEO
Last TLE update
15 hours ago
Origin
Manufacturer
One Web
Mission
Operational Commercial Communications
Bus & Motor
ARROW, Unknown motor
Mass
148 kg wet, ~140 kg dry
Launch date (UTC)
2020-03-21 (5 years ago)
Launch vehicle
SOYUZ-2-1B
Launch site
Tyuratam Missile And Space Complex (TTMTR)
Object type
Payload
Rocket body
Debris
Shape & HBR
Trap Box + 2 Pan, 5 m
Radar Cross Section
2.957 m², Large (>1 m²)

Expand to show TLE details & history

TLE from 15 hours ago
0 ONEWEB-0034
1 45454U 20020AG  25191.77375373  .00000432  00000-0  11832-2 0  9992
2 45454  87.8839  89.1025 0001882  77.0780 283.0558 13.11417158257849
Epoch: 2025-07-10T18:34Z
TLE epoch observation values (Epoch: 2025-07-10T18:34:12.322Z)
Latitude
-0.00002°
Longitude
-118.38406°
Altitude
1,220.248 km
Speed
7.244 km/s
True Right ascension
05h 56m 24s
True Declination
0° 00' 00"
Sunlit
Object was in daylight at epoch
Visualization orbit readout
Latitude
25.64445°
Longitude
60.47651°
Altitude
1,220.518 km
Speed
7.246 km/s
Apparent Right ascension
15h 01m 50s
Apparent Declination
-6° 51' 01"
Sunlit
Object is in full shadow
Visualization observer readout
Local Sidereal Time
22:18:00
Azimuth
277.069° WNW
Elevation
-18.965°
Doppler factor
1
Orbital elements
Apogee altitude
1,216.229 km
Perigee altitude
1,213.371 km
Semi-major axis
7,592.937 km
Eccentricity
0.00019
Inclination
87.8839°
RAAN
89.1025°
Arg. of periapsis
77.078°
True anomaly
Unknown
Mean anomaly
283.0558°
Eccentric anomaly
Unknown
Mean motion
3.28041 °/min
Orbital period
109.74 mins
BSTAR
0.0011832
Loading maneuver chart data...
Loading SW <> Apogee altitude chart data...
Loading historical data...
Loading historical data...
Loading historical data...
Loading historical data...
Loading historical data...
Loading historical data...
Loading historical data...

ONEWEB-0034 Visibility forecast

Observer location: undefined°, undefined°

Span
Click to sort rows by Start time (UTC) header in descending order
Start Az.
Max El. time (UTC)
Max El. Az.
Max El.
End time (UTC)
End Az.
12 mins2025-07-11 16:39:12.399Z140.068° SSE2025-07-11 16:45:12.399Z77.91° E30.326°2025-07-11 16:51:12.399Z18.948° NNE
12 mins2025-07-11 18:29:12.399Z214.169° SW2025-07-11 18:35:12.399Z285.081° WNW32.917°2025-07-11 18:41:12.399Z344.714° N
11 mins2025-07-12 04:09:12.399Z27.958° NE2025-07-12 04:14:12.399Z79.995° E25.588°2025-07-12 04:20:12.399Z135.728° SSE
12 mins2025-07-12 05:59:12.399Z343.03° N2025-07-12 06:04:12.399Z277.502° WNW37.786°2025-07-12 06:11:12.399Z203.909° SW
|